Powrót do katalogu

STARLINK-35295

AktywnyŁącznośćVLEO
NORAD 66070·PAYLOAD·🇺🇸 United States

Wystrzelony Oct 19, 2025 z Cape Canaveral Space Force Station

Loading…

Następne Przeloty (najbliższe 24 godziny)

TLE

ŚwieżeSource: CelesTrak SupGP

Epoka: Sep 14, 2026, 21:15 UTC

1 66070C 25235N   26257.88590278 -.00013051  00000+0 -38570-3 0  2579
2 66070  53.1589  86.1490 0001266  91.1043 239.4010 15.34389290    17

Śledź STARLINK-35295 w czasie rzeczywistym z AllMySat

Download on the App Store